Regional Weather Roundup
Issued by NWS

Home | Current Version | Previous Version | Graphics & Text | Print | Product List | Glossary On
Versions: 1 2 3 4 5 6 7 8 9 10 11 12 13 14 15 16 17 18 19 20 21 22 23 24 25 26 27 28 29 30 31 32 33 34 35 36 37 38 39 40 41 42 43 44 45 46 47 48 49 50
000
ASUS43 KIND 252359
RWRIN

WEATHER ROUNDUP FOR INDIANA
NATIONAL WEATHER SERVICE INDIANAPOLIS IN
700 PM EST TUE NOV 25 2014

NOTE: "FAIR" INDICATES FEW OR NO CLOUDS BELOW 12,000 FEET WITH NO
SIGNIFICANT WEATHER AND/OR OBSTRUCTIONS TO VISIBILITY.

* - STATION DOES NOT REPORT WEATHER SUCH AS PRECIPITATION OR FOG.

+ - STATION NOT QUALITY CONTROLLED BY THE NATIONAL WEATHER SERVICE.
    USE DATA WITH CAUTION...ESPECIALLY DEWPOINT AND RELATIVE
    HUMIDITY OBSERVATIONS.

INZ001>003-010>013-019-020-260100-
NORTHWEST INDIANA

CITY           SKY/WX    TMP DP  RH WIND       PRES   REMARKS
VALPARAISO     NOT AVBL

$$

LMZ046-743>745-260100-
SOUTHERN LAKE MICHIGAN

STATION/POSITION TIME  TEMP WIND        PRES
                       AIR  DIR/SP/G
                 (UTC) (F)  (DEG/KT/KT) (MB)
MICHIGAN CITY    2300   26  190/  7/ 10   N/A

$$

INZ004-005-014>016-021>024-260100-
NORTH CENTRAL INDIANA

CITY           SKY/WX    TMP DP  RH WIND       PRES   REMARKS
ELKHART        CLOUDY    27  18  69 SW3       30.17R
GOSHEN         CLOUDY    26  18  71 SW6       30.16R WCI  19
SOUTH BEND     CLOUDY    27  19  72 S7        30.17R WCI  19
6HR MIN TEMP:  26; 6HR MAX TEMP:  28;


$$

INZ006>009-017-018-025>027-260100-
NORTHEAST INDIANA

CITY           SKY/WX    TMP DP  RH WIND       PRES   REMARKS
ANGOLA *+      CLOUDY    27  19  74 W6        30.14F WCI  20
FORT WAYNE     CLOUDY    26  20  77 CALM      30.18R
6HR MIN TEMP:  26; 6HR MAX TEMP:  29;


$$

INZ028-029-035-036-043>045-051>053-260100-
WEST CENTRAL INDIANA

CITY           SKY/WX    TMP DP  RH WIND       PRES   REMARKS
GREENCASTLE +  CLOUDY    28  21  74 NW3       30.19R
LAFAYETTE      CLOUDY    25  19  78 NW3       30.20R
6HR MIN TEMP:  25; 6HR MAX TEMP:  26;

TERRE HAUTE    CLOUDY    29  21  72 CALM      30.21R
6HR MIN TEMP:  29; 6HR MAX TEMP:  32;


$$

INZ030>032-037>040-046>048-054>057-064-065-260100-
CENTRAL INDIANA

CITY           SKY/WX    TMP DP  RH WIND       PRES   REMARKS
COLUMBUS       PTCLDY    30  27  86 NW6       30.19R WCI  24
INDIANAPOLIS   CLOUDY    28  22  78 NW6       30.18R WCI  22
6HR MIN TEMP:  28; 6HR MAX TEMP:  31;

-EAGLE CREEK   CLOUDY    27  21  78 S3        30.18R
6HR MIN TEMP:  27; 6HR MAX TEMP:  30;

KOKOMO *+      CLOUDY    27  19  74 CALM      30.18R
MT COMFORT *+  CLOUDY    28  19  69 CALM      30.18R
SHELBYVILLE    CLOUDY    32  23  69 NW5       30.18R WCI  27
6HR MIN TEMP:  32; 6HR MAX TEMP:  36;


$$

INZ033-034-041-042-049-050-058-059-260100-
EAST CENTRAL INDIANA

CITY           SKY/WX    TMP DP  RH WIND       PRES   REMARKS
MUNCIE         CLOUDY    29  23  78 W7        30.18R WCI  22
6HR MIN TEMP:  29; 6HR MAX TEMP:  30;


$$

INZ060-061-067>069-081>083-085>088-260100-
SOUTHWEST INDIANA

CITY           SKY/WX    TMP DP  RH WIND       PRES   REMARKS
EVANSVILLE     PTCLDY    34  27  75 N6        30.19S WCI  29
6HR MIN TEMP:  34; 6HR MAX TEMP:  42;

HUNTINGBURG *+ PTCLDY    32  25  74 NW6       30.19S WCI  26
6HR MIN TEMP:  32; 6HR MAX TEMP:  43;


$$

INZ062-063-066-070>080-084-089>092-260100-
SOUTH CENTRAL AND SOUTHEAST INDIANA

CITY           SKY/WX    TMP DP  RH WIND       PRES   REMARKS
BLOOMINGTON    CLOUDY    31  25  78 W3        30.17R
6HR MIN TEMP:  31; 6HR MAX TEMP:  34;

SEYMOUR +      PTCLDY    34  27  75 N5        30.17  WCI  30

$$




USA.gov is the U.S. government's official web portal to all federal, state and local government web resources and services.